Las Cruces, NM

10:44 PM MST on December 17, 2017 (GMT -0700)
Las Cruces International

Weather History for KLRU - July, 2015

Change the Weather History Date:

Tuesday, July 14, 2015

  Actual Average Record
Temperature  
Mean Temperature 80 °F -  
Max Temperature 91 °F 92 °F 105 °F (2003)
Min Temperature 68 °F 69 °F 64 °F (2002)
Cooling Degree Days 14    
Growing Degree Days 30 (Base 50)    
Moisture  
Dew Point 51 °F    
Average Humidity 37    
Maximum Humidity 66    
Minimum Humidity 21    
Precipitation  
Precipitation 0.00 in - - ()
Sea Level Pressure  
Sea Level Pressure 30.06 in    
Wind  
Wind Speed 11 mph (West)    
Max Wind Speed 28 mph    
Max Gust Speed 39 mph    
Visibility 10 miles    
Events Rain , Thunderstorm    
Averages and records for this station are not official NWS values.
T = Trace of Precipitation, MM = Missing Value Source: NWS Daily Summary

Daily Weather History Graph

Daily Weather History Graph

Search for Another Location

Airport or City:

Trip Planner

Search our weather history database for the weather conditions in past years. The results will help you decide how hot, cold, wet, or windy it might be!

Date:

Astronomy

Jul. 14, 2015 Rise Set
Actual Time 6:10 AM MDT 8:15 PM MDT
Civil Twilight 5:43 AM MDT 8:43 PM MDT
Nautical Twilight 5:09 AM MDT 9:17 PM MDT
Astronomical Twilight 4:32 AM MDT 9:53 PM MDT
Moon 5:02 AM MDT (7/14) 7:07 PM MDT (7/14)
Length of Visible Light 15h 00m
Length of Day
14h 04m
Waning Crescent, 2% of the Moon is Illuminated
Jul 14
Waning Crescent
Jul 15
New
Jul 23
First Quarter
Jul 31
Full
Aug 6
Last Quarter

Hourly Weather History & Observations

Time (MDT) Temp. Dew Point Humidity Pressure Visibility Wind Dir Wind Speed Gust Speed Precip Events Conditions
12:15 AM 81.1 °F 50.0 °F 34% 30.03 in 10.0 mi North 16.1 mph 20.7 mph N/A   Scattered Clouds
12:35 AM 80.4 °F 50.4 °F 35% 30.04 in 10.0 mi North 12.7 mph 18.4 mph N/A   Scattered Clouds
12:55 AM 79.9 °F 51.8 °F 38% 30.04 in 10.0 mi North 10.4 mph - N/A   Clear
1:15 AM 78.4 °F 52.7 °F 41% 30.04 in 10.0 mi NNW 9.2 mph - N/A Thunderstorm Clear
1:35 AM 79.0 °F 51.3 °F 38% 30.06 in 10.0 mi West 8.1 mph - N/A   Clear
1:55 AM 76.5 °F 54.9 °F 47% 30.10 in 10.0 mi SW 8.1 mph - N/A   Clear
2:15 AM 76.1 °F 54.1 °F 46% 30.10 in 10.0 mi WSW 10.4 mph - N/A   Clear
2:35 AM 74.7 °F 55.4 °F 51% 30.11 in 10.0 mi WSW 9.2 mph - N/A   Scattered Clouds
2:55 AM 74.3 °F 55.4 °F 52% 30.11 in 10.0 mi SSW 8.1 mph - N/A   Scattered Clouds
3:15 AM 74.3 °F 54.9 °F 51% 30.11 in 10.0 mi SW 11.5 mph - N/A   Scattered Clouds
3:35 AM 74.3 °F 54.0 °F 49% 30.12 in 10.0 mi SW 15.0 mph - N/A Thunderstorm Overcast
3:55 AM 73.2 °F 54.7 °F 52% 30.11 in 10.0 mi SW 20.7 mph 27.6 mph N/A   Mostly Cloudy
4:15 AM 69.8 °F 55.4 °F 60% 30.11 in 10.0 mi WSW 26.5 mph 36.8 mph N/A   Mostly Cloudy
4:35 AM 70.9 °F 53.6 °F 54% 30.11 in 10.0 mi WSW 21.9 mph 35.7 mph N/A   Overcast
4:55 AM 69.4 °F 55.4 °F 61% 30.06 in 10.0 mi West 27.6 mph 39.1 mph N/A Rain Light Rain
5:15 AM 68.0 °F 56.3 °F 66% 30.09 in 10.0 mi West 18.4 mph 26.5 mph N/A   Scattered Clouds
5:35 AM 69.6 °F 54.5 °F 59% 30.08 in 10.0 mi West 13.8 mph 18.4 mph N/A   Clear
5:55 AM 71.2 °F 53.2 °F 53% 30.08 in 10.0 mi WNW 9.2 mph - N/A   Scattered Clouds
6:15 AM 72.7 °F 52.0 °F 48% 30.09 in 10.0 mi WNW 9.2 mph - N/A   Scattered Clouds
6:35 AM 73.2 °F 51.4 °F 46% 30.10 in 10.0 mi NW 8.1 mph - N/A   Clear
6:55 AM 73.4 °F 52.2 °F 47% 30.08 in 10.0 mi North 11.5 mph - N/A   Clear
7:15 AM 73.8 °F 51.8 °F 46% 30.06 in 10.0 mi NE 13.8 mph 23.0 mph N/A   Clear
7:35 AM 73.0 °F 54.0 °F 51% 30.07 in 10.0 mi ENE 10.4 mph - N/A   Clear
7:55 AM 72.5 °F 55.4 °F 55% 30.10 in 10.0 mi NNE 6.9 mph - N/A   Clear
8:15 AM 73.4 °F 55.4 °F 53% 30.10 in 10.0 mi NE 4.6 mph - N/A   Clear
8:35 AM 74.5 °F 55.0 °F 51% 30.10 in 10.0 mi NNE 4.6 mph - N/A   Clear
8:55 AM 75.0 °F 55.2 °F 50% 30.11 in 10.0 mi North 8.1 mph - N/A   Clear
9:15 AM 75.9 °F 54.5 °F 47% 30.11 in 10.0 mi North 9.2 mph - N/A   Clear
9:35 AM 76.6 °F 54.1 °F 46% 30.11 in 10.0 mi NNE 9.2 mph - N/A   Clear
9:55 AM 77.5 °F 54.1 °F 44% 30.10 in 10.0 mi NNE 8.1 mph - N/A   Clear
10:15 AM 79.5 °F 54.0 °F 41% 30.10 in 10.0 mi North 6.9 mph - N/A   Clear
10:35 AM 80.8 °F 52.9 °F 38% 30.10 in 10.0 mi NNE 9.2 mph - N/A   Clear
10:55 AM 82.4 °F 52.5 °F 35% 30.10 in 10.0 mi North 6.9 mph - N/A   Clear
11:15 AM 84.0 °F 51.4 °F 32% 30.10 in 10.0 mi NNE 9.2 mph - N/A   Clear
11:35 AM 85.5 °F 50.4 °F 30% 30.10 in 10.0 mi NE 8.1 mph - N/A   Clear
11:55 AM 86.2 °F 50.2 °F 29% 30.10 in 10.0 mi NE 5.8 mph - N/A   Clear
12:15 PM 86.7 °F 49.3 °F 27% 30.10 in 10.0 mi Calm Calm - N/A   Clear
12:35 PM 89.1 °F 48.0 °F 24% 30.09 in 10.0 mi WNW 3.5 mph 9.2 mph N/A   Clear
12:55 PM 87.8 °F 46.9 °F 24% 30.08 in 10.0 mi WNW 3.5 mph - N/A   Clear
1:15 PM 88.5 °F 48.2 °F 25% 30.08 in 10.0 mi Calm Calm - N/A   Clear
1:35 PM 89.8 °F 48.9 °F 24% 30.07 in 10.0 mi WSW 8.1 mph - N/A   Clear
1:55 PM 88.5 °F 51.8 °F 28% 30.06 in 10.0 mi West 12.7 mph 16.1 mph N/A   Clear
2:15 PM 88.9 °F 51.6 °F 28% 30.05 in 10.0 mi West 6.9 mph - N/A   Clear
2:35 PM 90.0 °F 47.5 °F 23% 30.05 in 10.0 mi SW 10.4 mph 16.1 mph N/A   Clear
2:55 PM 89.2 °F 48.9 °F 25% 30.04 in 10.0 mi West 6.9 mph - N/A   Clear
3:15 PM 90.0 °F 49.6 °F 25% 30.04 in 10.0 mi WSW 11.5 mph - N/A   Clear
3:35 PM 90.1 °F 48.7 °F 24% 30.03 in 10.0 mi WSW 9.2 mph 16.1 mph N/A   Clear
3:55 PM 90.3 °F 48.9 °F 24% 30.02 in 10.0 mi WSW 11.5 mph 17.3 mph N/A   Clear
4:15 PM 90.0 °F 48.4 °F 24% 30.01 in 10.0 mi WSW 11.5 mph 16.1 mph N/A   Clear
4:35 PM 90.7 °F 46.4 °F 22% 30.00 in 10.0 mi WSW 9.2 mph - N/A   Clear
4:55 PM 91.0 °F 48.4 °F 23% 29.99 in 10.0 mi SW 9.2 mph - N/A   Clear
5:15 PM 90.5 °F 45.9 °F 21% 29.99 in 10.0 mi WSW 9.2 mph - N/A   Clear
5:35 PM 90.7 °F 46.9 °F 22% 29.99 in 10.0 mi West 3.5 mph - N/A   Clear
5:55 PM 89.6 °F 48.4 °F 24% 29.98 in 10.0 mi WSW 10.4 mph 17.3 mph N/A   Clear
6:15 PM 89.6 °F 47.1 °F 23% 29.98 in 10.0 mi WNW 8.1 mph 17.3 mph N/A   Clear
6:35 PM 89.4 °F 47.7 °F 24% 29.98 in 10.0 mi WSW 8.1 mph - N/A   Clear
6:55 PM 88.9 °F 46.8 °F 23% 29.98 in 10.0 mi West 10.4 mph 16.1 mph N/A   Clear
7:15 PM 88.0 °F 47.5 °F 25% 29.99 in 10.0 mi West 10.4 mph - N/A   Clear
7:35 PM 86.9 °F 48.0 °F 26% 29.99 in 10.0 mi West 9.2 mph - N/A   Clear
7:55 PM 86.0 °F 48.0 °F 27% 29.99 in 10.0 mi West 8.1 mph - N/A   Clear
8:15 PM 84.6 °F 48.4 °F 28% 30.00 in 10.0 mi West 6.9 mph - N/A   Clear
8:35 PM 83.3 °F 48.7 °F 30% 30.00 in 10.0 mi West 8.1 mph - N/A   Clear
8:55 PM 82.0 °F 50.0 °F 33% 30.01 in 10.0 mi West 6.9 mph - N/A   Clear
9:15 PM 81.1 °F 50.2 °F 34% 30.02 in 10.0 mi West 6.9 mph - N/A   Clear
9:35 PM 80.2 °F 51.1 °F 36% 30.03 in 10.0 mi West 5.8 mph - N/A   Clear
9:55 PM 79.9 °F 52.3 °F 38% 30.03 in 10.0 mi WSW 5.8 mph - N/A   Clear
10:15 PM 79.9 °F 52.9 °F 39% 30.04 in 10.0 mi SW 4.6 mph - N/A   Clear
10:35 PM 80.6 °F 52.9 °F 38% 30.04 in 10.0 mi WSW 4.6 mph - N/A   Clear
10:55 PM 80.6 °F 50.9 °F 35% 30.04 in 10.0 mi WSW 6.9 mph - N/A   Clear
11:15 PM 80.1 °F 51.6 °F 37% 30.04 in 10.0 mi WSW 5.8 mph - N/A   Mostly Cloudy
11:35 PM 79.2 °F 51.8 °F 38% 30.05 in 10.0 mi WSW 5.8 mph - N/A   Scattered Clouds
11:55 PM 79.5 °F 50.0 °F 36% 30.04 in 10.0 mi WSW 9.2 mph - N/A   Clear